QPF
0.00 0.00 0.03 0.02 0.00 0.00 0.00 0.00 0.00 0.00 0.00 0.00 0.00 0.00 0.00 0.00 0.00 0.00 0.01 0.02 0.00 0.00 0.00 0.00 0.00 0.00 0.00 0.00 0.00 0.00 0.00 0.00 0.00 0.00 0.00 0.00 0.00 0.00 0.02 0.01 0.00 0.00 0.00
0.00 0.00 0.01 0.02 0.00 0.00 0.00 0.00 0.00 0.00 0.00 0.00 0.00 0.00 0.00 0.00 0.00 0.00 0.00 0.00 0.00 0.00 0.00 0.00 0.00 0.00 0.00 0.00 0.00 0.00 0.00 0.00 0.00 0.00 0.00 0.00 0.00 0.00 0.00 0.01 0.01 0.00 0.00
0.00 0.00 0.01 0.00 0.00 0.00 0.00 0.00 0.00 0.00 0.00 0.00 0.00 0.00 0.00 0.00 0.00 0.00 0.00 0.00 0.00 0.00 0.00 0.00 0.00 0.00 0.00 0.00 0.00 0.00 0.00 0.00 0.00 0.01 0.00 0.00 0.00 0.00 0.00 0.01 0.00 0.00 0.00
0.00 0.00 0.01 0.01 0.00 0.00 0.00 0.00 0.00 0.00 0.00 0.00 0.00 0.00 0.00 0.00 0.00 0.00 0.00 0.00 0.00 0.00 0.00 0.00 0.00 0.00 0.00 0.00 0.00 0.00 0.00 0.00 0.00 0.01 0.00 0.00 0.00 0.00 0.00 0.00 0.00 0.00 0.00
0.00 0.00 0.00 0.00 0.00 0.00 0.00 0.00 0.00 0.00 0.00 0.00 0.00 0.00 0.00 0.00 0.00 0.00 0.00 0.00 0.00 0.00 0.00 0.00 0.00 0.00 0.00 0.00 0.00 0.00 0.00 0.00 0.00 0.00 0.00 0.00 0.00 0.00 0.00 0.00 0.00 0.00 0.00
0.00 0.00 0.01 0.00 0.00 0.00 0.00 0.00 0.00 0.00 0.00 0.00 0.00 0.00 0.00 0.00 0.00 0.00 0.00 0.00 0.00 0.00 0.00 0.00 0.00 0.00 0.00 0.00 0.00 0.00 0.00 0.00 0.00 0.00 0.00 0.00 0.00 0.00 0.00 0.00 0.00 0.00 0.00
0.00 0.00 0.00 0.00 0.00 0.00 0.00 0.00 0.00 0.00 0.00 0.00 0.00 0.00 0.00 0.00 0.00 0.00 0.00 0.00 0.00 0.00 0.00 0.00 0.00 0.00 0.00 0.00 0.00 0.00 0.00 0.00 0.02 0.00 0.00 0.00 0.00 0.00 0.00 0.00 0.00 0.00 0.00
0.00 0.00 0.00 0.00 0.00 0.00 0.00 0.00 0.00 0.00 0.00 0.00 0.00 0.00 0.00 0.00 0.00 0.00 0.00 0.00 0.00 0.00 0.00 0.00 0.00 0.00 0.00 0.00 0.00 0.01 0.00 0.01 0.04 0.04 0.02 0.00 0.00 0.00 0.03 0.05 0.09 0.01 0.00
0.00 0.00 0.00 0.00 0.00 0.00 0.00 0.00 0.00 0.00 0.00 0.00 0.00 0.00 0.00 0.00 0.00 0.00 0.00 0.00 0.00 0.00 0.00 0.00 0.01 0.02 0.01 0.02 0.04 0.02 0.01 0.02 0.07 0.00 0.01 0.00 0.00 0.00 0.01 0.03 0.03 0.02 0.01
0.00 0.00 0.00 0.00 0.00 0.00 0.00 0.00 0.00 0.00 0.00 0.00 0.00 0.00 0.00 0.00 0.00 0.00 0.00 0.00 0.00 0.00 0.00 0.00 0.00 0.04 0.04 0.03 0.03 0.02 0.00 0.00 0.00 0.00 0.01 0.00 0.00 0.00 0.00 0.00 0.00 0.00 0.01
0.00 0.00 0.00 0.00 0.00 0.00 0.00 0.00 0.00 0.00 0.00 0.00 0.00 0.00 0.00 0.00 0.00 0.00 0.00 0.00 0.00 0.00 0.00 0.00 0.00 0.01 0.01 0.01 0.02 0.01 0.00 0.00 0.00 0.00 0.00 0.00 0.00 0.00 0.00 0.01 0.00 0.00 0.00
0.00 0.00 0.00 0.00 0.00 0.00 0.00 0.00 0.00 0.00 0.00 0.00 0.00 0.00 0.00 0.00 0.00 0.00 0.00 0.00 0.00 0.00 0.00 0.00 0.00 0.00 0.00 0.00 0.00 0.00 0.00 0.00 0.00 0.00 0.00 0.00 0.00 0.00 0.03 0.05 0.04 0.02 0.00
0.00 0.00 0.00 0.00 0.00 0.00 0.00 0.00 0.00 0.00 0.00 0.00 0.00 0.00 0.00 0.00 0.00 0.00 0.00 0.00 0.00 0.00 0.00 0.00 0.00 0.00 0.01 0.01 0.00 0.01 0.00 0.00 0.00 0.00 0.00 0.00 0.00 0.00 0.05 0.07 0.07 0.08 0.07
0.00 0.00 0.00 0.00 0.00 0.00 0.00 0.00 0.00 0.00 0.00 0.00 0.00 0.00 0.00 0.00 0.00 0.00 0.00 0.00 0.01 0.00 0.00 0.00 0.00 0.00 0.01 0.01 0.01 0.01 0.00 0.00 0.00 0.00 0.00 0.00 0.00 0.01 0.02 0.03 0.04 0.05 0.06
0.00 0.00 0.00 0.00 0.00 0.00 0.00 0.00 0.00 0.00 0.00 0.00 0.00 0.00 0.00 0.00 0.00 0.00 0.00 0.00 0.01 0.01 0.02 0.03 0.00 0.00 0.01 0.00 0.00 0.00 0.00 0.00 0.00 0.00 0.00 0.00 0.00 0.00 0.01 0.02 0.04 0.04 0.06
0.00 0.00 0.00 0.00 0.00 0.00 0.00 0.00 0.00 0.00 0.00 0.00 0.00 0.00 0.00 0.00 0.00 0.00 0.00 0.00 0.00 0.03 0.03 0.02 0.02 0.05 0.00 0.00 0.00 0.00 0.00 0.00 0.00 0.00 0.00 0.00 0.00 0.00 0.03 0.07 0.09 0.10 0.09
0.00 0.00 0.00 0.00 0.00 0.00 0.00 0.00 0.00 0.00 0.00 0.00 0.00 0.00 0.00 0.00 0.00 0.00 0.00 0.00 0.00 0.00 0.02 0.05 0.06 0.01 0.02 0.03 0.00 0.00 0.00 0.00 0.00 0.00 0.00 0.00 0.00 0.01 0.02 0.04 0.04 0.03 0.04
0.00 0.00 0.00 0.00 0.00 0.00 0.00 0.00 0.00 0.00 0.00 0.00 0.00 0.00 0.00 0.00 0.00 0.00 0.00 0.00 0.00 0.01 0.01 0.00 0.01 0.02 0.10 0.04 0.01 0.01 0.00 0.00 0.00 0.00 0.00 0.00 0.00 0.00 0.02 0.03 0.01 0.01 0.00
0.00 0.00 0.00 0.00 0.00 0.00 0.00 0.00 0.00 0.00 0.00 0.00 0.00 0.00 0.00 0.00 0.00 0.00 0.00 0.00 0.00 0.01 0.00 0.00 0.00 0.00 0.01 0.01 0.00 0.00 0.00 0.00 0.00 0.00 0.00 0.00 0.01 0.03 0.02 0.00 0.01 0.00 0.00
0.00 0.00 0.00 0.00 0.00 0.00 0.00 0.00 0.00 0.00 0.00 0.00 0.00 0.00 0.00 0.00 0.00 0.00 0.00 0.00 0.00 0.00 0.00 0.00 0.01 0.00 0.00 0.00 0.01 0.00 0.00 0.00 0.00 0.00 0.00 0.01 0.05 0.04 0.01 0.01 0.03 0.03 0.00
0.00 0.00 0.00 0.00 0.00 0.00 0.00 0.00 0.00 0.00 0.00 0.00 0.00 0.00 0.00 0.00 0.00 0.00 0.00 0.00 0.00 0.00 0.00 0.00 0.02 0.00 0.01 0.01 0.05 0.00 0.00 0.00 0.00 0.00 0.01 0.01 0.03 0.02 0.02 0.01 0.03 0.05 0.02
0.00 0.00 0.00 0.00 0.00 0.00 0.00 0.00 0.00 0.00 0.00 0.00 0.00 0.00 0.00 0.00 0.00 0.00 0.00 0.00 0.00 0.00 0.00 0.00 0.00 0.00 0.01 0.02 0.10 0.02 0.00 0.00 0.00 0.04 0.05 0.04 0.03 0.00 0.00 0.02 0.03 0.03 0.05
0.00 0.00 0.00 0.00 0.00 0.00 0.00 0.00 0.00 0.00 0.00 0.00 0.00 0.00 0.00 0.00 0.00 0.00 0.00 0.00 0.00 0.00 0.00 0.00 0.00 0.00 0.00 0.04 0.08 0.04 0.01 0.00 0.00 0.03 0.08 0.18 0.05 0.01 0.01 0.02 0.06 0.05 0.08
0.00 0.00 0.00 0.00 0.00 0.00 0.00 0.00 0.00 0.00 0.00 0.00 0.00 0.00 0.00 0.00 0.00 0.00 0.00 0.00 0.00 0.00 0.00 0.03 0.05 0.02 0.02 0.03 0.05 0.06 0.03 0.01 0.00 0.00 0.13 0.28 0.06 0.00 0.00 0.02 0.05 0.02 0.02
0.00 0.00 0.00 0.00 0.00 0.00 0.00 0.00 0.00 0.00 0.00 0.00 0.00 0.00 0.00 0.00 0.00 0.00 0.00 0.00 0.00 0.00 0.00 0.08 0.15 0.05 0.03 0.05 0.07 0.05 0.01 0.01 0.03 0.01 0.01 0.09 0.03 0.00 0.00 0.01 0.02 0.00 0.00
0.00 0.00 0.00 0.00 0.00 0.00 0.00 0.00 0.00 0.00 0.00 0.00 0.00 0.00 0.00 0.00 0.00 0.00 0.00 0.00 0.00 0.00 0.00 0.05 0.23 0.12 0.09 0.09 0.09 0.04 0.03 0.02 0.01 0.02 0.01 0.05 0.00 0.00 0.00 0.00 0.00 0.00 0.00
MSLP
1013.88 1013.77 1013.57 1013.85 1013.73 1013.76 1013.84 1013.96 1014.00 1014.20 1014.37 1014.34 1014.42 1014.54 1014.59 1014.66 1014.77 1014.90 1014.98 1014.97 1015.00 1015.00 1015.08 1015.14 1015.27 1015.34 1015.38 1015.44 1015.38 1015.28 1015.17 1015.10 1015.04 1014.97 1014.88 1014.73 1014.63 1014.90 1015.06 1015.22 1015.39 1015.62 1015.66
1013.54 1013.53 1013.82 1013.57 1013.90 1014.03 1013.98 1014.14 1014.29 1014.50 1014.54 1014.68 1014.80 1014.75 1014.75 1014.87 1015.00 1015.10 1015.13 1015.20 1015.22 1015.25 1015.40 1015.62 1015.62 1015.66 1015.81 1015.77 1015.62 1015.43 1015.26 1015.25 1015.14 1015.11 1015.17 1015.10 1014.96 1014.89 1015.12 1015.26 1015.51 1015.70 1015.91
1013.55 1013.69 1013.72 1013.88 1014.07 1014.18 1014.19 1014.29 1014.50 1014.70 1014.71 1014.93 1014.97 1014.97 1014.99 1015.04 1015.14 1015.17 1015.28 1015.34 1015.41 1015.52 1015.63 1015.77 1015.88 1015.95 1015.99 1015.89 1015.78 1015.54 1015.46 1015.42 1015.27 1015.38 1015.61 1015.64 1015.36 1015.06 1015.05 1015.26 1015.65 1015.83 1016.10
1013.52 1013.64 1013.76 1014.09 1014.24 1014.26 1014.38 1014.49 1014.65 1014.81 1014.92 1015.04 1015.00 1015.05 1015.12 1015.20 1015.24 1015.32 1015.44 1015.53 1015.60 1015.70 1015.84 1015.96 1016.07 1016.24 1016.34 1016.27 1016.14 1015.94 1015.80 1015.65 1015.58 1015.67 1016.08 1015.99 1015.63 1015.30 1015.23 1015.40 1015.72 1015.98 1016.24
1013.62 1013.72 1014.00 1014.22 1014.29 1014.49 1014.64 1014.74 1014.85 1015.05 1015.09 1015.06 1015.06 1015.17 1015.19 1015.29 1015.39 1015.46 1015.54 1015.69 1015.79 1015.88 1016.03 1016.21 1016.25 1016.39 1016.40 1016.42 1016.36 1016.20 1016.06 1015.76 1015.52 1015.54 1015.66 1016.11 1016.10 1015.78 1015.45 1015.43 1015.74 1015.99 1016.19
1013.77 1013.93 1014.06 1014.33 1014.50 1014.67 1014.87 1014.94 1015.17 1015.26 1015.21 1015.18 1015.38 1015.46 1015.48 1015.50 1015.54 1015.68 1015.79 1015.94 1016.09 1016.24 1016.31 1016.40 1016.37 1016.26 1016.28 1016.22 1016.13 1016.00 1015.95 1015.74 1015.64 1015.67 1015.73 1016.04 1016.16 1016.10 1015.73 1015.78 1015.93 1016.18 1016.32
1013.99 1014.05 1014.27 1014.50 1014.67 1014.83 1015.00 1015.07 1015.28 1015.37 1015.40 1015.41 1015.45 1015.51 1015.58 1015.67 1015.82 1015.99 1016.14 1016.27 1016.38 1016.51 1016.49 1016.38 1016.46 1016.36 1016.24 1016.23 1016.04 1015.77 1015.70 1015.57 1015.54 1015.61 1015.67 1015.78 1015.92 1015.93 1015.81 1015.85 1015.98 1016.18 1016.37
1014.03 1014.23 1014.41 1014.60 1014.82 1015.04 1015.12 1015.25 1015.34 1015.57 1015.54 1015.55 1015.70 1015.76 1015.87 1016.02 1016.10 1016.14 1016.29 1016.36 1016.44 1016.48 1016.58 1016.51 1016.45 1016.39 1016.19 1015.98 1015.86 1015.69 1015.57 1015.63 1015.59 1015.82 1015.92 1015.93 1015.90 1015.94 1015.94 1015.88 1016.00 1016.11 1016.27
1014.11 1014.50 1014.56 1014.77 1014.96 1015.11 1015.28 1015.30 1015.45 1015.66 1015.64 1015.74 1015.82 1015.99 1016.14 1016.24 1016.29 1016.34 1016.41 1016.42 1016.40 1016.36 1016.46 1016.41 1016.47 1016.14 1016.06 1015.83 1015.69 1015.37 1015.36 1015.28 1015.56 1015.86 1015.93 1015.93 1015.84 1015.88 1015.80 1015.83 1015.87 1015.94 1016.06
1014.60 1014.74 1014.90 1014.96 1015.00 1015.33 1015.41 1015.39 1015.60 1015.71 1015.80 1015.85 1016.00 1016.13 1016.24 1016.38 1016.41 1016.40 1016.38 1016.40 1016.36 1016.31 1016.36 1016.34 1016.19 1015.98 1015.82 1015.60 1015.39 1015.20 1014.90 1014.93 1014.94 1015.31 1015.67 1015.77 1015.68 1015.76 1015.72 1015.83 1015.90 1016.08 1016.16
1014.97 1015.13 1015.14 1015.14 1015.24 1015.56 1015.69 1015.71 1015.67 1015.67 1015.77 1015.88 1016.06 1016.19 1016.36 1016.62 1016.68 1016.52 1016.48 1016.40 1016.35 1016.20 1016.04 1015.98 1015.94 1015.88 1015.88 1015.65 1015.26 1014.82 1014.55 1014.47 1014.60 1014.80 1015.12 1015.30 1015.41 1015.35 1015.50 1015.65 1015.82 1016.00 1016.14
1014.99 1015.20 1015.34 1015.21 1015.48 1015.69 1015.70 1015.88 1015.86 1015.81 1015.90 1016.06 1016.26 1016.41 1016.64 1016.70 1016.78 1016.65 1016.60 1016.45 1016.28 1016.08 1015.94 1015.85 1015.86 1015.73 1015.46 1015.44 1015.29 1014.94 1014.66 1014.44 1014.53 1014.76 1014.86 1015.02 1015.24 1015.36 1015.52 1015.54 1015.56 1015.73 1015.85
1014.56 1015.08 1015.24 1015.36 1015.47 1015.70 1015.75 1015.94 1016.00 1016.11 1016.14 1016.31 1016.40 1016.50 1016.66 1016.58 1016.65 1016.71 1016.74 1016.60 1016.39 1016.27 1016.37 1016.28 1016.18 1015.96 1015.63 1015.22 1015.15 1015.37 1014.89 1014.56 1014.56 1014.50 1014.50 1014.80 1014.92 1015.07 1015.08 1015.20 1015.26 1015.54 1015.62
1014.49 1014.72 1015.01 1015.10 1015.41 1015.67 1015.94 1016.06 1016.10 1016.30 1016.32 1016.42 1016.41 1016.45 1016.61 1016.75 1016.60 1016.58 1016.60 1016.48 1016.61 1016.73 1016.79 1016.56 1016.43 1016.19 1015.83 1015.49 1015.15 1015.18 1015.02 1014.71 1014.64 1014.68 1014.77 1014.62 1014.70 1014.96 1015.10 1015.02 1015.19 1015.39 1015.40
1014.25 1014.55 1014.87 1015.13 1015.43 1015.57 1016.02 1016.14 1016.26 1016.35 1016.31 1016.34 1016.44 1016.34 1016.56 1016.72 1016.72 1016.56 1016.44 1016.58 1016.87 1017.03 1016.99 1016.79 1016.45 1016.24 1015.94 1015.55 1015.16 1015.06 1015.00 1014.86 1014.76 1014.82 1014.87 1014.82 1014.79 1014.88 1014.97 1014.94 1015.23 1015.15 1015.20
1013.85 1014.29 1014.65 1015.00 1015.20 1015.51 1015.96 1016.03 1016.14 1016.27 1016.25 1016.25 1016.28 1016.18 1016.44 1016.71 1016.66 1016.61 1016.56 1016.65 1016.77 1016.89 1016.81 1016.59 1016.38 1016.17 1016.14 1015.70 1015.44 1014.98 1014.82 1014.73 1014.56 1014.50 1014.46 1014.44 1014.41 1014.55 1014.66 1014.71 1014.88 1015.00 1015.22
1013.44 1013.89 1014.45 1014.83 1015.04 1015.50 1015.74 1015.70 1015.94 1016.14 1016.13 1016.21 1016.09 1016.13 1016.37 1016.64 1016.72 1016.50 1016.42 1016.60 1016.69 1016.52 1016.57 1016.19 1015.97 1016.10 1015.85 1015.86 1015.74 1015.46 1014.96 1014.80 1014.61 1014.45 1014.52 1014.51 1014.57 1014.56 1014.54 1014.64 1014.78 1014.84 1014.94
1013.18 1013.72 1014.19 1014.68 1014.96 1015.27 1015.55 1015.46 1015.65 1015.94 1015.82 1015.94 1016.08 1016.24 1016.40 1016.60 1016.78 1016.67 1016.41 1016.59 1016.36 1016.23 1016.16 1016.27 1016.21 1016.40 1016.30 1016.15 1015.89 1015.59 1015.38 1015.12 1014.89 1014.48 1014.30 1014.56 1014.74 1014.79 1014.85 1014.81 1014.76 1014.86 1014.91
1012.74 1013.32 1014.02 1014.40 1014.74 1014.94 1015.21 1015.38 1015.65 1015.67 1015.77 1015.68 1015.86 1015.96 1016.06 1016.30 1016.54 1016.72 1016.50 1016.25 1016.10 1016.15 1016.29 1016.37 1016.49 1016.35 1016.33 1016.38 1016.15 1015.70 1015.39 1015.18 1015.14 1014.72 1014.76 1014.57 1014.64 1014.82 1014.99 1014.87 1014.79 1014.86 1014.94
1012.54 1012.97 1013.55 1013.97 1014.48 1014.74 1015.04 1015.40 1015.79 1015.81 1015.80 1015.90 1015.73 1015.82 1015.79 1015.89 1016.20 1016.50 1016.35 1015.96 1015.97 1016.31 1016.40 1016.35 1016.81 1016.69 1016.66 1016.53 1016.08 1015.52 1015.31 1015.18 1015.17 1014.98 1014.90 1014.46 1014.36 1014.48 1014.55 1014.60 1014.87 1015.06 1014.75
1012.37 1012.99 1013.43 1013.91 1014.23 1014.62 1015.07 1015.52 1015.98 1016.26 1016.08 1015.90 1015.60 1015.52 1015.65 1015.76 1015.86 1016.17 1016.17 1016.01 1015.96 1016.42 1016.46 1016.67 1016.88 1017.01 1016.86 1016.59 1016.57 1016.07 1015.62 1015.43 1015.25 1015.23 1014.94 1014.94 1014.55 1014.30 1014.42 1014.43 1014.60 1014.72 1014.99
1011.84 1012.52 1013.22 1013.53 1013.89 1014.21 1014.54 1015.02 1015.42 1015.71 1015.88 1015.85 1015.66 1015.63 1015.66 1015.66 1015.68 1016.00 1016.14 1016.30 1016.46 1016.68 1016.60 1016.67 1016.74 1017.06 1017.08 1016.85 1017.14 1017.20 1016.77 1016.08 1015.59 1015.46 1015.26 1015.18 1014.92 1014.52 1014.22 1014.11 1014.41 1014.58 1014.85
1011.42 1012.04 1012.58 1013.04 1013.43 1013.82 1014.21 1014.80 1015.32 1015.57 1015.70 1015.93 1015.92 1015.77 1015.50 1015.52 1015.67 1015.74 1015.88 1016.08 1016.36 1016.54 1016.59 1016.86 1016.76 1017.11 1017.16 1017.03 1016.99 1017.16 1017.17 1017.05 1016.72 1015.75 1015.70 1015.56 1015.06 1014.71 1014.28 1014.17 1014.44 1014.30 1014.51
1010.62 1011.34 1011.97 1012.54 1013.06 1013.44 1013.82 1014.48 1015.00 1015.33 1015.72 1015.74 1015.84 1015.77 1015.57 1015.43 1015.44 1015.40 1015.59 1015.84 1016.14 1016.30 1016.35 1016.58 1016.66 1016.67 1016.82 1017.00 1016.97 1017.14 1017.28 1017.32 1017.32 1016.75 1015.87 1015.57 1015.26 1014.94 1014.48 1014.03 1013.90 1014.07 1014.24
1009.91 1010.75 1011.39 1012.08 1012.72 1013.09 1013.46 1013.97 1014.64 1015.08 1015.35 1015.50 1015.73 1015.75 1015.64 1015.42 1015.30 1015.26 1015.52 1015.74 1016.06 1016.15 1016.07 1016.37 1016.34 1016.14 1016.43 1016.65 1016.74 1016.88 1016.97 1016.91 1017.04 1017.07 1016.48 1015.95 1015.50 1015.29 1015.12 1014.78 1014.54 1014.46 1014.22
1009.21 1010.00 1010.84 1011.65 1012.13 1012.62 1013.05 1013.61 1014.05 1014.51 1015.02 1015.50 1015.60 1015.74 1015.63 1015.50 1015.30 1015.10 1015.29 1015.51 1015.67 1015.67 1015.58 1015.76 1015.67 1015.65 1015.36 1015.64 1016.12 1016.56 1016.70 1016.72 1016.67 1016.72 1016.73 1016.31 1016.16 1016.10 1015.88 1015.62 1015.39 1015.20 1014.96
Thickness
5767 5767 5767 5763 5766 5768 5768 5767 5768 5766 5765 5765 5764 5763 5763 5763 5762 5760 5758 5757 5756 5757 5756 5755 5754 5753 5753 5752 5752 5754 5756 5756 5756 5756 5757 5759 5761 5761 5761 5759 5757 5754 5752
5769 5769 5766 5770 5769 5767 5768 5768 5766 5765 5765 5764 5763 5763 5763 5762 5760 5759 5758 5756 5756 5756 5754 5752 5753 5752 5750 5750 5752 5754 5755 5756 5757 5756 5755 5755 5756 5758 5759 5758 5757 5754 5750
5772 5771 5772 5771 5770 5768 5768 5769 5766 5764 5764 5762 5761 5761 5761 5761 5759 5758 5756 5755 5755 5753 5753 5752 5751 5750 5749 5750 5751 5754 5755 5756 5756 5753 5750 5749 5751 5754 5756 5756 5753 5752 5748
5774 5774 5775 5771 5771 5770 5769 5769 5766 5765 5764 5762 5762 5761 5761 5759 5758 5757 5755 5753 5753 5752 5751 5751 5751 5749 5747 5748 5750 5752 5753 5754 5754 5750 5743 5745 5750 5753 5755 5753 5751 5750 5747
5777 5777 5775 5772 5772 5770 5768 5767 5766 5765 5764 5764 5764 5763 5763 5761 5759 5757 5755 5752 5751 5751 5750 5749 5749 5748 5747 5747 5748 5750 5751 5752 5753 5752 5750 5747 5748 5749 5751 5752 5750 5748 5746
5779 5778 5776 5773 5771 5770 5769 5768 5765 5765 5766 5767 5765 5763 5762 5761 5760 5757 5755 5752 5750 5748 5748 5747 5748 5750 5748 5748 5749 5751 5751 5752 5754 5752 5752 5748 5746 5746 5746 5746 5746 5743 5741
5779 5778 5776 5773 5772 5772 5770 5769 5768 5767 5767 5767 5766 5765 5763 5761 5758 5757 5755 5753 5750 5747 5747 5749 5747 5748 5749 5748 5749 5751 5753 5754 5754 5755 5755 5752 5750 5748 5744 5743 5741 5740 5739
5779 5777 5776 5775 5773 5772 5771 5771 5771 5769 5769 5769 5766 5765 5763 5760 5759 5758 5756 5754 5753 5751 5748 5748 5749 5749 5751 5752 5750 5751 5752 5752 5754 5754 5752 5752 5751 5748 5745 5743 5741 5740 5738
5779 5776 5777 5776 5775 5773 5772 5773 5772 5771 5771 5770 5768 5765 5764 5762 5760 5759 5757 5757 5756 5756 5754 5752 5752 5754 5753 5754 5753 5754 5753 5753 5752 5750 5749 5749 5749 5746 5745 5743 5741 5740 5739
5777 5775 5776 5777 5777 5774 5774 5774 5774 5774 5773 5772 5769 5767 5765 5763 5762 5761 5760 5759 5758 5758 5757 5755 5755 5755 5756 5755 5755 5755 5756 5755 5755 5751 5748 5747 5748 5746 5745 5742 5741 5738 5737
5775 5775 5776 5778 5778 5775 5775 5775 5776 5777 5775 5773 5771 5769 5767 5765 5763 5763 5762 5761 5760 5759 5759 5759 5759 5758 5756 5756 5756 5758 5758 5758 5755 5755 5752 5750 5748 5747 5745 5742 5740 5738 5735
5773 5776 5778 5780 5779 5777 5776 5776 5778 5778 5776 5774 5771 5770 5768 5766 5765 5764 5762 5762 5761 5761 5760 5759 5759 5759 5759 5757 5756 5755 5757 5758 5758 5756 5754 5752 5749 5746 5744 5742 5741 5739 5736
5780 5780 5781 5782 5781 5779 5778 5778 5778 5778 5777 5774 5772 5772 5771 5770 5769 5766 5764 5763 5764 5761 5758 5757 5756 5757 5760 5762 5758 5751 5753 5755 5757 5757 5757 5754 5752 5748 5746 5743 5741 5737 5734
5782 5784 5785 5785 5783 5782 5780 5779 5780 5778 5777 5777 5776 5776 5775 5772 5771 5769 5767 5766 5765 5762 5759 5759 5759 5759 5761 5763 5763 5757 5757 5758 5758 5757 5756 5754 5751 5748 5745 5743 5740 5735 5733
5785 5786 5787 5788 5785 5785 5780 5780 5780 5781 5780 5780 5780 5780 5778 5775 5771 5771 5771 5768 5766 5763 5760 5760 5760 5760 5762 5763 5763 5761 5760 5759 5758 5756 5755 5751 5748 5744 5740 5739 5736 5734 5731
5791 5789 5791 5790 5789 5787 5784 5783 5783 5783 5783 5784 5784 5784 5779 5776 5773 5772 5771 5770 5768 5765 5764 5764 5763 5762 5760 5759 5759 5762 5762 5761 5761 5760 5758 5755 5752 5747 5743 5740 5736 5732 5728
5795 5794 5792 5792 5792 5789 5788 5787 5786 5787 5785 5786 5787 5785 5782 5778 5775 5774 5774 5772 5769 5769 5769 5771 5770 5766 5765 5758 5757 5756 5759 5759 5760 5759 5757 5753 5748 5744 5742 5738 5733 5729 5725
5798 5796 5796 5796 5795 5793 5793 5791 5790 5789 5789 5789 5788 5786 5783 5779 5776 5775 5776 5774 5773 5774 5773 5770 5771 5764 5761 5758 5757 5755 5755 5755 5754 5755 5754 5749 5745 5741 5736 5732 5727 5723 5720
5802 5801 5798 5797 5797 5798 5797 5793 5792 5792 5793 5795 5792 5790 5788 5783 5780 5778 5777 5778 5777 5777 5775 5773 5768 5766 5761 5757 5757 5758 5757 5756 5753 5751 5748 5747 5743 5738 5733 5730 5727 5722 5716
5805 5806 5805 5801 5800 5801 5799 5796 5793 5794 5794 5795 5795 5792 5791 5789 5786 5782 5780 5781 5781 5779 5776 5775 5767 5764 5759 5756 5758 5760 5758 5755 5754 5751 5748 5747 5746 5741 5736 5732 5724 5716 5713
5808 5806 5804 5802 5803 5801 5798 5795 5793 5791 5793 5795 5796 5793 5791 5792 5789 5786 5784 5784 5784 5778 5776 5771 5764 5758 5756 5758 5751 5752 5753 5752 5748 5746 5746 5743 5743 5740 5735 5729 5723 5717 5709
5810 5808 5805 5806 5807 5806 5804 5802 5800 5798 5797 5796 5796 5795 5793 5793 5792 5788 5785 5783 5781 5775 5773 5771 5766 5758 5756 5755 5745 5738 5733 5738 5743 5743 5743 5741 5739 5735 5733 5728 5719 5713 5705
5813 5811 5810 5810 5811 5811 5809 5805 5802 5801 5799 5796 5795 5796 5797 5795 5793 5791 5788 5785 5781 5777 5772 5768 5765 5758 5751 5751 5747 5739 5731 5725 5729 5737 5734 5733 5734 5732 5730 5724 5716 5712 5705
5820 5819 5815 5814 5813 5813 5813 5807 5803 5799 5795 5797 5797 5797 5797 5796 5795 5794 5791 5788 5783 5779 5775 5769 5766 5762 5756 5748 5745 5741 5738 5733 5724 5723 5731 5728 5728 5726 5725 5723 5718 5709 5700
5827 5823 5820 5817 5815 5816 5815 5812 5806 5802 5802 5801 5799 5797 5797 5797 5796 5797 5794 5789 5784 5780 5778 5771 5766 5766 5758 5749 5744 5742 5738 5735 5730 5722 5720 5721 5723 5720 5715 5712 5706 5700 5696
5832 5830 5825 5819 5818 5819 5818 5814 5810 5807 5804 5800 5800 5798 5797 5797 5800 5800 5796 5792 5787 5785 5783 5777 5772 5765 5763 5757 5752 5746 5741 5735 5731 5724 5715 5713 5712 5708 5704 5701 5697 5690 5684